TimeEDT,TemperatureF,Dew PointF,Humidity,Sea Level PressureIn,VisibilityMPH,Wind Direction,Wind SpeedMPH,Gust SpeedMPH,PrecipitationIn,Events,Conditions,WindDirDegrees,DateUTC
12:53 AM,36.0,26.1,67,30.49,10.0,East,3.5,-,N/A,,Clear,90,2013-04-22 04:53:00
1:53 AM,36.0,26.1,67,30.47,10.0,Calm,Calm,-,N/A,,Clear,0,2013-04-22 05:53:00
2:53 AM,35.1,27.0,72,30.45,10.0,Calm,Calm,-,N/A,,Clear,0,2013-04-22 06:53:00
3:53 AM,35.1,28.0,76,30.43,10.0,Calm,Calm,-,N/A,,Clear,0,2013-04-22 07:53:00
4:53 AM,34.0,28.9,82,30.43,10.0,Calm,Calm,-,N/A,,Partly Cloudy,0,2013-04-22 08:53:00
5:53 AM,34.0,28.9,82,30.41,9.0,Calm,Calm,-,N/A,,Partly Cloudy,0,2013-04-22 09:53:00
6:53 AM,34.0,30.0,85,30.42,9.0,Calm,Calm,-,N/A,,Partly Cloudy,0,2013-04-22 10:53:00
7:53 AM,37.0,32.0,82,30.43,8.0,NE,4.6,-,N/A,,Partly Cloudy,50,2013-04-22 11:53:00
8:53 AM,42.1,33.1,70,30.42,10.0,Calm,Calm,-,N/A,,Partly Cloudy,0,2013-04-22 12:53:00
9:53 AM,46.0,33.1,61,30.41,10.0,East,4.6,-,N/A,,Partly Cloudy,80,2013-04-22 13:53:00
10:53 AM,50.0,33.1,52,30.40,10.0,NE,3.5,-,N/A,,Partly Cloudy,50,2013-04-22 14:53:00
11:53 AM,54.0,28.9,38,30.39,10.0,Calm,Calm,-,N/A,,Partly Cloudy,0,2013-04-22 15:53:00
12:53 PM,55.9,27.0,33,30.37,10.0,ESE,5.8,-,N/A,,Scattered Clouds,110,2013-04-22 16:53:00
1:53 PM,57.9,26.1,30,30.34,10.0,East,10.4,-,N/A,,Scattered Clouds,100,2013-04-22 17:53:00
2:53 PM,-9999,-9999,N/A,30.30,10.0,SE,9.2,-,N/A,,Scattered Clouds,140,2013-04-22 18:53:00
3:53 PM,59.0,19.9,22,30.29,10.0,ESE,8.1,-,N/A,,Scattered Clouds,110,2013-04-22 19:53:00
4:53 PM,59.0,14.0,17,30.28,10.0,ESE,6.9,-,N/A,,Partly Cloudy,120,2013-04-22 20:53:00
5:53 PM,60.1,21.0,22,30.26,10.0,Calm,Calm,-,N/A,,Scattered Clouds,0,2013-04-22 21:53:00
6:53 PM,59.0,26.1,28,30.24,10.0,ESE,8.1,-,N/A,,Scattered Clouds,120,2013-04-22 22:53:00
7:53 PM,57.0,28.9,34,30.23,10.0,SSE,8.1,-,N/A,,Partly Cloudy,150,2013-04-22 23:53:00
8:53 PM,53.1,33.1,47,30.24,10.0,Variable,5.8,-,N/A,,Partly Cloudy,0,2013-04-23 00:53:00
9:53 PM,48.9,32.0,52,30.23,10.0,East,6.9,-,N/A,,Partly Cloudy,90,2013-04-23 01:53:00
10:53 PM,48.0,32.0,54,30.23,10.0,East,4.6,-,N/A,,Partly Cloudy,80,2013-04-23 02:53:00
11:53 PM,46.9,32.0,56,30.22,10.0,Calm,Calm,-,N/A,,Partly Cloudy,0,2013-04-23 03:53:00